Content
SEND FEEDBACK

Daily
Averages
Monthly
Summary
United States of America

STRATTON, COLORADO


Home > North America > United States > Colorado
Elevation: 1341 meters     Latitude: 39 18N     Longitude: 102 35W

WEATHER
 
SELECT A DAY
Number of Records: 175,107;   Date Range: 4/10/97 - 7/7/14
 
SHARE

PRINT THIS DATA

[ ← Previous Day ]
WEATHER ALMANAC - 31 JANUARY, 2013
[ Next Day → ]
[ °F ]   °C
Weather ElementAverageHighLow
Temperature-1.7 °C3.9 °C (2:53 pm)-8.3 °C (11:53 pm)
Dewpoint-8 °C-5.6 °C (8:53 am)-11.7 °C (6:53 pm)
Humidity64.3 %89 % (9:53 pm)43 % (12:53 pm)
Barometer1020.7 hPa1025.7 hPa (6:53 pm)1013.2 hPa (1:53 am)
Wind Speed17.5 km/h29.6 km/h (11:53 am)
Wind Gust38.9 km/h (12:53 pm)
Weather ElementAverage
Visibility15.8 km
Wind DirectionSSW (191.7 °)

Weather ElementTotal
Precipitation---
Heating Degree Days20.6 (Base 18.3)
Averaged from 24 records on 31 January, 2013
WEATHER CONDITIONS BREAKOUT
WIND DIRECTION BREAKOUT
WEATHER BY HOUR - 31 JANUARY, 2013
[ °F ]   °C
Local TimeTemperatureDewpointHumidityBarometerVisibilityWind DirectionWind SpeedGust SpeedPrecipitationEventsConditions
1:53 AM0 °C-9.4 °C50 %1013.2 hPa16.1 kmWest (260°)11.1 km/hOvercast
2:53 AM-0.6 °C-8.9 °C54 %1013.5 hPa16.1 kmWSW (250°)9.3 km/hOvercast
3:53 AM-1.1 °C-8.3 °C59 %1013.9 hPa16.1 kmWest (280°)7.4 km/hOvercast
4:29 AM-1 °C-7 °C64 %1013.5 hPa16.1 kmNorth (10°)18.5 km/hOvercast
4:53 AM-1.7 °C-6.7 °C69 %1015.9 hPa16.1 kmNorth (360°)14.8 km/hOvercast
5:53 AM-2.2 °C-6.7 °C72 %1017.9 hPa16.1 kmNorth (360°)13 km/hOvercast
6:53 AM-2.2 °C-6.7 °C72 %1019.3 hPa16.1 kmNorth (360°)9.3 km/hOvercast
7:53 AM-1.7 °C-7.2 °C67 %1020 hPa16.1 kmNorth (10°)16.7 km/hOvercast
8:53 AM-1.1 °C-5.6 °C72 %1021.3 hPa16.1 kmNorth (10°)24.1 km/hMostly Cloudy
9:10 AM-1 °C-6 °C69 %1019.3 hPa11.3 kmNorth (10°)22.2 km/h0 mmSnowLight Snow
9:53 AM0.6 °C-5.6 °C64 %1022 hPa16.1 kmNNW (340°)22.2 km/h0 mmScattered Clouds
10:53 AM2.2 °C-6.1 °C55 %1022 hPa16.1 kmNorth (360°)27.8 km/hClear
11:53 AM2.8 °C-7.2 °C48 %1022.4 hPa16.1 kmNorth (10°)29.6 km/h35.2 km/hClear
12:53 PM3.3 °C-8.3 °C43 %1021.7 hPa16.1 kmNorth (360°)25.9 km/h38.9 km/hClear
1:53 PM3.3 °C-8.3 °C43 %1021.3 hPa16.1 kmNorth (10°)18.5 km/h29.6 km/hClear
2:53 PM3.9 °C-7.8 °C43 %1021.7 hPa16.1 kmNorth (350°)14.8 km/h27.8 km/hClear
3:53 PM1.7 °C-7.8 °C50 %1022.4 hPa16.1 kmENE (60°)16.7 km/hClear
5:53 PM-5 °C-10.6 °C65 %1024.7 hPa16.1 kmSE (130°)13 km/hClear
6:53 PM-6.7 °C-11.7 °C68 %1025.7 hPa16.1 kmSSE (150°)14.8 km/hClear
7:53 PM-6.1 °C-11.1 °C68 %1025.4 hPa16.1 kmSouth (170°)20.4 km/hClear
8:53 PM-6.1 °C-8.9 °C81 %1025.1 hPa16.1 kmSouth (180°)24.1 km/hClear
9:53 PM-6.7 °C-8.3 °C89 %1025.1 hPa16.1 kmSSE (160°)14.8 km/hClear
10:53 PM-6.7 °C-8.3 °C89 %1024.4 hPa16.1 kmSSW (200°)16.7 km/hClear
11:53 PM-8.3 °C-10 °C88 %1024.7 hPa14.5 kmSSW (210°)14.8 km/hClear
Hourly data recorded from KITR, located 0 kilometers away from Stratton, Colorado







STORIES FROM OUR PARTNERS